STARLINK-4095 (53170 NORAD) Tracking and Keplerian Element Data

This shows tracking and keplerian element data for the satellite.

Feedback or suggestion? Click here.




ElementValue
Catalog53170
NameSTARLINK-4095
Epoch Orbit1190
Epoch Day270.25001157
Epoch Year2022
RAAN54.2164
Inclination53.2171
Eccentricity0.0001511
Argument of Perigee52.9968
Mean Anonmoly114.4549
Mean Motion15.37249296
Decay Rate-0.01071375
L11 53170U 22083AQ 22270.25001157 -.01071375 00000+0 -31522-1 0 9994
L22 53170 53.2171 54.2164 0001511 52.9968 114.4549 15.37249296 11903

Live tracking and technical data element details for STARLINK-4095 (NORAD 53170). STARLINK-4095 can be tracked NOW for your location showing map with azimuth and elevation plus other details from your city location.

Track the satellite on the map from your city or location and see movement details for azimuth, elevation, latitude, longitude, range, height, and movement on the map or in text.







IsCatalogInMostPopularTable: catalog: 53170, numindb: 3
Update: records affected: 1



GetName: 53170 STARLINK-4095

Hit Count: updated at: Thu, 29 Sep 2022 10:57:05 GMT